Wind_Speed
34 34 34 33 34 35 34 33 33 35 37 39 41 41 41 40 39 39 38 38 36 36 35 35 35 34 34 34 33 32 30 29 28 26 25 25 24 23 21 19 18 17 16 15 16 17 18 19 19 19 18 17 16 16 16 16 15 14 13 13 13 14 15 16 17 18 19 20 21 22 24 25 26 27 28 30 32 32 33 33 33 32 31 30 29
34 35 35 34 34 36 37 37 38 39 39 41 41 40 40 39 39 39 38 37 36 35 35 35 34 34 33 33 32 30 28 27 26 25 24 24 23 21 19 18 17 15 14 14 15 16 17 18 18 17 16 16 15 15 15 14 14 13 13 13 14 15 16 17 18 19 20 21 22 23 25 25 26 27 28 30 31 32 32 31 31 30 29 28 27
34 34 34 35 36 38 39 40 40 40 40 40 40 39 39 39 39 39 38 37 36 35 35 34 33 33 32 31 30 28 26 25 25 24 23 23 21 19 18 17 15 14 14 14 15 16 17 17 16 15 14 15 15 14 14 13 13 13 14 14 15 16 17 18 19 20 21 22 23 24 25 26 26 27 28 30 30 30 30 29 28 26 25 24 23
36 36 36 37 38 39 39 41 42 41 40 40 39 39 39 39 39 39 38 37 36 35 34 33 33 32 31 30 28 26 25 24 24 23 22 21 20 18 17 16 15 14 14 14 15 15 15 15 14 14 14 15 15 14 14 14 14 15 15 16 17 18 19 20 21 21 22 23 24 25 26 26 26 27 28 28 28 28 27 26 25 23 21 19 19
40 39 39 39 39 39 39 41 41 41 41 40 40 40 40 39 39 39 38 37 36 35 34 33 32 31 29 28 26 25 23 23 22 22 21 20 19 18 16 16 15 14 14 14 14 14 14 14 14 14 15 15 15 15 15 16 16 17 18 18 19 20 20 21 22 22 23 24 25 26 26 26 26 26 27 27 27 26 25 24 22 20 18 16 16
40 39 39 38 37 37 39 40 40 41 40 40 39 40 40 39 39 38 37 37 35 34 33 32 31 29 28 27 25 24 22 22 21 21 20 18 17 17 15 15 15 14 13 13 14 13 13 13 14 15 15 15 16 16 17 18 19 19 19 19 20 20 21 22 22 23 24 25 26 26 26 25 25 26 26 26 25 25 24 23 21 19 16 15 15
39 38 38 37 36 37 38 38 39 39 38 39 39 39 39 39 38 38 37 36 35 33 32 31 30 28 26 26 25 23 22 21 20 19 18 17 16 16 15 14 14 14 13 13 13 13 12 13 14 15 15 15 16 17 18 19 20 20 20 20 20 20 21 22 23 24 24 25 26 26 25 24 24 25 25 24 24 24 23 23 22 19 16 15 15
38 37 37 37 37 37 38 37 37 37 38 38 38 39 39 39 38 37 36 35 34 32 31 29 28 27 26 25 25 23 21 20 19 18 17 16 15 15 14 14 14 13 13 13 13 13 13 13 13 14 14 15 16 18 19 19 19 20 20 20 20 21 21 23 23 24 25 26 26 26 24 23 24 24 24 24 24 23 23 23 22 20 16 15 14
37 36 37 37 37 36 36 36 36 37 37 38 38 39 39 38 37 37 35 34 33 32 30 28 27 26 25 25 24 23 21 19 18 16 16 15 15 15 14 14 14 13 13 13 13 13 13 13 13 13 14 16 17 18 19 19 19 19 20 21 21 21 22 23 24 25 26 26 26 25 24 24 24 24 24 24 24 23 23 22 22 21 17 15 15
36 36 36 36 35 35 34 35 36 37 37 37 38 38 38 37 37 36 35 33 32 31 29 28 27 26 25 25 24 23 21 18 17 16 15 15 15 15 14 14 14 13 13 13 13 13 13 13 13 14 15 16 17 18 18 18 18 19 20 21 22 23 23 24 25 26 27 27 26 26 25 24 24 24 24 24 24 23 23 22 22 21 19 16 15
36 35 34 34 33 33 34 35 36 37 37 38 38 38 37 36 36 35 34 33 32 30 29 27 26 25 25 25 24 23 20 18 16 15 15 15 15 15 15 14 14 13 13 13 13 12 13 13 14 14 15 16 16 17 17 17 18 19 20 21 22 23 24 25 26 27 28 28 27 27 26 26 25 24 24 24 24 24 23 22 22 21 20 18 16
34 34 34 33 33 34 36 37 37 37 38 38 38 37 36 35 35 34 33 32 31 30 28 27 26 25 25 24 23 22 20 18 16 15 15 15 15 15 14 14 14 13 13 13 13 13 13 13 14 14 15 16 16 16 16 16 18 19 20 21 22 24 25 26 27 27 28 28 28 28 28 27 26 25 25 24 24 24 24 23 22 21 21 20 18
34 34 34 33 33 35 37 37 37 37 38 37 37 36 35 35 34 33 33 32 30 29 28 27 25 25 24 24 23 21 20 18 16 15 15 15 15 15 15 14 13 13 13 13 12 12 13 13 14 14 15 15 15 15 15 17 18 19 21 22 23 24 25 26 27 28 28 29 29 29 29 29 28 27 25 25 24 24 24 23 22 21 21 21 19
34 35 35 35 36 37 38 37 37 36 37 37 36 35 34 34 33 33 32 31 30 28 27 26 25 24 24 23 22 21 19 18 16 16 15 15 15 15 15 14 13 13 13 13 12 12 13 13 14 14 15 15 15 15 16 17 19 20 21 23 24 25 26 27 27 28 29 29 30 30 30 29 29 28 26 25 24 24 24 24 23 22 21 21 21
36 37 37 37 38 38 38 37 36 36 37 36 35 34 33 33 32 32 31 30 29 28 27 26 25 24 24 23 21 20 18 17 17 16 16 15 15 15 15 14 13 13 13 13 12 12 13 13 14 14 15 15 16 16 17 19 20 21 22 23 24 25 26 27 28 28 29 29 29 29 30 29 28 28 27 25 24 23 23 23 23 22 21 21 21
38 37 37 38 38 37 37 36 36 36 34 33 33 33 32 32 32 31 31 30 29 28 27 25 25 24 24 22 20 19 18 17 17 17 16 15 16 16 15 15 15 14 14 14 13 13 13 14 15 15 15 16 16 17 18 19 21 22 23 23 24 25 26 27 28 28 28 28 29 29 29 29 28 28 27 26 25 24 23 23 23 22 21 20 21
39 38 38 38 38 37 37 37 35 33 31 31 32 32 32 32 32 31 31 29 28 27 26 25 24 24 23 22 20 18 17 17 16 17 16 15 16 17 16 16 16 16 15 15 15 14 15 15 16 16 16 16 17 18 19 20 21 22 23 24 24 25 26 26 26 26 27 27 28 28 28 28 28 27 27 26 26 25 23 22 23 22 21 20 20
40 39 39 39 38 37 37 36 34 33 33 33 33 33 33 32 32 32 31 29 28 27 26 25 24 24 23 21 19 18 17 16 16 16 16 16 16 17 17 17 17 17 16 16 16 15 15 16 16 16 16 16 17 18 20 21 21 22 23 23 24 24 24 23 22 23 25 26 26 27 27 27 27 27 27 26 26 25 24 23 23 23 22 20 20
40 40 39 39 37 36 36 35 34 35 36 35 34 34 33 32 32 31 30 29 28 27 26 25 25 24 23 21 19 18 17 16 16 16 16 16 16 17 18 17 17 17 17 16 16 16 15 15 16 16 17 17 19 20 21 21 22 22 22 22 22 22 22 21 20 21 24 24 25 26 26 27 27 27 28 27 27 26 24 23 23 23 22 21 20
40 40 39 37 36 36 36 35 36 38 38 37 36 35 33 32 32 31 30 29 28 27 26 26 25 24 23 22 20 18 17 16 16 16 16 16 16 17 18 18 17 17 16 16 16 16 16 16 16 17 18 19 20 21 22 22 22 22 21 20 19 19 20 21 21 22 24 25 25 25 26 27 28 29 29 30 29 28 26 24 24 23 23 22 20
39 39 39 38 38 39 38 38 39 41 40 38 37 35 33 32 31 30 30 29 28 27 27 26 26 25 24 22 20 19 17 16 16 16 16 16 16 17 18 18 18 17 16 16 16 16 17 18 18 18 19 19 20 21 22 23 22 21 18 17 17 18 19 21 22 23 25 25 25 26 27 28 29 30 31 31 31 30 28 26 25 24 24 23 21
40 41 41 40 41 41 40 41 42 42 40 39 36 34 33 32 31 31 30 29 28 28 27 27 26 25 24 22 21 20 18 18 17 16 16 15 16 17 18 18 18 17 17 16 16 16 17 18 18 19 19 19 20 22 23 23 22 19 17 16 16 18 19 22 24 24 25 25 26 27 28 29 30 30 31 31 31 31 29 27 25 25 25 24 22
41 42 40 40 41 41 42 42 41 41 39 38 36 34 34 33 32 31 30 29 28 28 28 27 27 26 25 23 22 21 20 19 18 17 16 16 16 17 18 18 17 16 16 16 16 16 17 17 18 18 19 20 22 23 23 22 20 18 17 17 17 18 20 22 24 25 25 26 26 27 29 31 32 31 31 31 31 31 29 27 25 24 25 25 24
41 41 39 40 40 40 41 40 40 40 39 38 37 35 34 34 32 32 31 30 29 29 29 28 27 27 26 24 23 22 22 20 19 18 16 16 17 17 16 14 14 14 14 14 15 16 17 18 18 19 20 22 22 22 21 20 19 18 19 19 19 20 22 24 26 26 26 27 27 27 29 31 33 33 32 31 31 30 28 27 25 24 25 25 25
39 39 36 37 38 39 41 42 43 43 41 39 39 37 35 34 33 32 32 31 30 30 29 29 28 28 27 26 25 24 23 22 20 18 17 16 16 14 11 9 10 10 12 12 13 15 18 19 19 20 22 22 21 20 19 19 20 20 21 21 22 22 24 26 28 29 28 28 28 28 29 30 32 34 34 32 31 29 27 25 25 24 24 25 25
32 31 31 34 36 40 45 47 47 45 43 41 40 39 36 35 34 33 33 32 32 31 30 30 30 29 28 28 27 26 25 23 21 19 17 16 14 10 9 10 10 11 13 13 14 17 19 20 21 23 24 23 22 22 21 22 22 23 23 24 25 25 26 28 30 31 31 31 31 30 30 30 31 32 34 33 32 29 26 24 24 24 23 23 24
27 27 31 36 40 44 49 49 48 46 44 44 42 40 37 35 35 34 33 33 33 32 31 31 31 30 30 30 29 28 27 24 22 21 18 16 14 11 11 13 12 13 15 15 17 21 22 23 24 25 26 26 25 25 25 26 26 26 25 25 26 27 29 30 32 33 33 32 32 32 31 31 31 31 32 32 32 30 26 24 24 24 23 22 23
29 32 38 43 48 50 48 46 45 43 42 42 42 39 36 36 35 34 33 33 34 33 33 33 32 31 31 31 30 29 27 25 23 22 19 16 14 11 12 15 15 15 17 19 23 27 26 26 26 26 27 28 28 28 28 28 29 29 29 28 28 30 31 32 34 34 35 34 34 33 32 32 32 32 31 30 31 30 27 23 22 23 23 22 21
30 36 43 45 46 42 37 39 39 38 38 39 39 37 36 36 35 34 33 34 34 34 34 33 32 31 31 30 29 29 27 25 23 22 19 15 13 10 11 15 16 17 19 23 28 29 29 29 28 28 28 29 29 29 29 29 29 30 31 31 32 33 34 34 35 36 37 36 35 35 34 33 33 33 32 30 29 29 27 23 22 22 21 20 19
27 29 33 33 33 31 30 34 35 35 37 37 36 36 36 35 33 33 33 33 34 33 32 31 30 29 29 28 28 27 25 22 22 20 17 15 13 11 12 13 16 18 21 25 28 30 31 31 30 31 31 30 30 30 30 30 30 31 32 33 34 36 37 36 36 37 39 39 37 37 36 35 34 34 33 32 29 28 26 24 23 23 21 17 18
28 28 25 24 27 31 34 36 35 35 38 36 35 35 34 31 31 32 31 30 30 29 28 28 27 27 26 26 25 24 22 21 19 17 15 14 14 15 14 13 16 19 24 28 30 31 31 32 32 33 33 33 32 32 32 32 32 32 33 35 36 38 39 38 38 38 39 40 39 38 38 37 36 35 34 33 31 29 26 24 23 24 22 18 19
30 31 31 32 34 31 31 35 35 37 37 35 34 33 30 27 27 28 28 27 27 26 25 24 23 23 22 21 21 21 21 19 16 14 14 14 15 16 15 17 20 23 27 30 31 32 33 33 34 35 35 35 35 35 35 35 34 35 36 37 39 40 41 41 40 39 40 41 41 40 38 38 37 35 35 34 33 30 28 25 24 25 24 22 21
31 34 37 40 42 34 29 32 34 36 34 34 33 29 26 24 24 25 24 23 22 21 20 19 20 19 18 17 18 19 18 16 14 14 14 14 15 15 17 21 24 26 30 32 32 34 35 36 37 38 38 37 37 38 38 38 39 40 40 41 41 41 42 42 43 42 42 41 42 41 39 37 36 35 35 35 34 33 30 26 24 25 26 26 26
37 42 44 45 43 35 32 32 33 35 35 34 32 27 23 22 23 22 19 18 18 18 16 17 17 15 14 14 15 15 15 16 15 15 14 15 16 16 21 25 26 28 31 32 33 35 36 38 39 40 40 40 40 40 40 41 41 42 43 43 43 43 43 43 44 45 45 43 42 41 40 37 36 35 35 34 35 34 32 28 26 25 26 27 29
45 47 47 48 42 33 29 30 33 38 38 34 30 25 22 22 22 19 17 17 19 16 13 14 14 13 14 12 12 13 14 15 15 15 15 15 16 19 24 26 26 28 30 32 34 35 36 38 39 39 40 41 42 42 42 43 43 43 44 44 45 45 44 45 45 45 46 45 44 42 40 38 36 35 35 35 35 35 33 31 28 25 25 26 28
46 49 46 42 35 27 24 26 30 34 34 32 28 25 22 21 19 16 16 15 15 14 12 13 12 12 12 9 10 11 13 15 16 16 16 15 18 23 26 25 25 27 29 32 33 33 35 36 37 37 38 39 40 41 41 42 43 43 44 45 45 45 46 46 45 45 45 45 44 42 41 39 37 36 36 36 35 35 34 32 29 26 24 24 26
47 51 46 38 28 24 21 22 24 25 26 28 27 25 23 20 16 15 16 14 15 16 16 15 13 11 10 8 10 11 12 14 16 18 18 18 21 25 25 24 25 27 29 31 32 32 33 34 35 35 36 37 37 38 38 39 39 40 42 43 43 44 44 44 45 45 45 44 43 43 41 40 38 37 36 36 36 35 33 32 30 27 25 24 25
49 50 46 39 32 27 23 20 21 22 23 26 27 25 23 20 17 17 17 15 17 20 20 18 15 12 11 10 10 11 12 12 15 18 18 18 23 26 24 23 25 28 30 32 32 33 33 33 33 34 35 36 36 35 35 36 37 38 39 40 41 41 42 43 43 44 44 44 43 43 42 41 40 39 38 37 37 35 34 33 31 28 27 26 25
48 50 46 41 38 36 33 25 21 23 24 26 27 25 23 22 21 20 20 20 19 21 21 18 16 15 14 13 13 12 13 13 16 18 19 19 24 27 24 25 28 30 32 33 34 34 33 34 34 35 36 36 36 35 35 36 37 37 38 40 41 41 41 42 42 43 43 43 43 42 42 41 40 40 39 38 37 36 35 34 32 30 29 28 28
45 49 48 45 43 43 40 29 22 25 27 28 27 25 26 26 23 22 24 25 22 20 20 19 19 19 17 16 16 14 13 15 19 22 25 25 26 28 26 27 31 32 34 35 36 35 35 35 36 36 37 37 37 37 38 39 38 38 38 40 42 42 42 42 42 42 42 42 42 42 41 41 40 40 40 40 39 37 36 36 34 33 32 31 31
46 48 48 47 45 45 42 34 29 30 29 30 30 28 28 27 25 25 25 24 22 22 23 22 22 22 21 20 19 17 17 20 25 29 33 32 27 30 30 31 34 35 36 37 37 36 36 37 37 37 38 39 39 40 41 41 40 40 40 41 43 44 44 43 43 43 42 42 42 41 41 41 41 41 41 41 41 39 38 37 36 35 34 33 33
50 50 49 48 47 46 44 42 41 39 33 32 34 32 31 30 28 28 26 24 23 23 24 24 24 25 26 26 25 24 25 27 30 34 37 35 32 32 34 36 38 39 39 38 37 36 37 37 37 38 39 40 42 42 43 42 42 43 44 44 45 46 46 45 44 44 43 43 42 41 41 41 41 41 42 42 42 40 38 38 37 36 35 35 35
52 53 52 51 49 48 47 48 48 45 39 36 37 36 34 34 34 33 31 28 25 24 23 23 23 24 26 29 30 31 32 31 31 34 37 37 37 36 39 42 42 41 40 38 37 36 37 37 37 39 40 41 43 44 44 43 43 46 48 49 48 48 47 47 46 45 45 44 43 42 41 41 40 40 41 42 42 41 39 38 37 37 37 37 37
52 53 52 49 48 47 47 49 49 47 44 41 40 40 39 39 38 36 33 31 29 28 27 25 25 25 27 31 34 36 36 36 33 36 39 40 42 41 43 48 45 42 39 37 37 37 37 38 38 39 40 42 43 44 42 42 44 49 51 51 49 48 47 47 47 46 46 46 45 44 43 42 41 40 39 39 40 40 39 39 38 38 37 38 39
53 52 50 47 46 47 47 48 48 47 47 45 43 43 43 42 40 36 35 34 32 32 32 31 31 32 32 33 37 39 40 40 38 39 42 43 43 44 46 50 47 42 39 38 38 38 38 39 39 40 41 42 43 43 42 41 46 51 50 46 45 45 45 47 48 47 46 46 47 46 44 42 41 40 38 38 38 38 38 38 38 37 37 37 39
54 51 48 47 47 49 49 49 49 48 48 47 46 45 44 42 39 37 37 37 36 35 36 35 35 36 34 34 38 41 42 43 42 41 42 43 44 45 49 52 48 44 41 40 40 40 40 40 40 41 42 42 43 44 44 45 49 52 50 44 41 42 43 45 48 49 48 46 47 48 46 43 41 39 38 37 37 37 37 37 37 36 36 37 38
54 50 48 48 49 50 50 50 50 48 46 45 46 46 44 42 40 38 39 40 39 38 39 39 38 37 35 35 38 42 44 45 45 44 44 45 46 48 52 54 50 45 43 43 42 42 42 42 42 43 42 43 44 46 47 49 51 52 51 48 45 44 44 45 46 49 51 49 47 46 46 45 42 40 38 37 37 36 36 36 36 36 36 36 37
54 51 50 49 49 49 50 51 50 46 43 42 42 44 45 44 42 41 41 41 41 40 40 40 40 39 38 37 39 44 46 46 45 45 45 46 49 52 56 56 51 47 45 44 44 44 44 44 44 44 43 44 46 48 50 52 53 54 54 53 51 49 48 48 48 49 50 52 51 47 45 45 44 42 40 39 38 37 37 37 36 36 37 37 37
56 55 53 50 48 48 48 48 48 46 44 43 42 43 45 46 44 42 42 42 42 42 42 42 42 42 40 38 40 45 48 47 44 43 45 48 52 56 59 57 52 49 47 46 46 45 45 45 45 45 44 46 48 50 52 54 55 56 57 56 55 53 52 52 52 51 50 51 52 51 48 46 46 44 42 41 41 39 39 38 38 38 37 38 38
56 56 55 52 50 47 44 42 41 43 44 45 45 44 44 44 43 42 41 40 41 42 43 45 44 43 41 39 41 45 49 47 44 44 47 52 56 59 60 56 52 51 50 49 48 47 46 46 46 45 46 48 50 52 53 54 55 57 58 59 58 56 55 55 55 53 52 50 50 51 49 48 48 47 45 44 43 42 41 40 39 39 39 39 39
55 56 56 55 53 49 44 38 36 39 42 44 44 42 40 41 41 41 40 40 41 42 44 45 44 43 41 41 42 44 46 45 45 47 51 56 59 60 59 55 53 53 53 51 50 49 48 47 47 47 49 51 53 54 54 56 57 58 59 60 60 59 58 59 58 56 53 52 50 49 49 48 48 48 47 46 45 44 43 42 41 41 41 41 40
Wind_Direction
285 285 285 288 291 294 297 299 300 301 302 304 307 309 309 310 309 308 308 307 306 306 306 306 307 308 308 310 310 309 307 306 305 304 303 302 301 300 297 295 292 290 290 291 292 293 294 297 300 302 303 306 307 309 310 309 310 312 312 309 303 297 294 291 289 288 290 294 299 303 305 304 303 302 303 304 304 305 305 304 302 298 293 288 285
284 283 284 287 292 295 295 297 301 303 303 305 308 309 309 309 309 308 308 307 306 306 306 307 307 308 309 310 309 308 306 305 304 305 304 301 300 299 296 294 292 291 293 294 295 296 298 301 304 306 309 311 312 312 311 311 312 312 311 308 302 297 294 291 290 290 293 297 301 304 306 306 304 303 304 305 305 306 306 306 303 297 292 288 284
285 285 285 287 290 294 293 296 300 302 305 307 308 308 308 309 309 309 308 307 307 307 307 307 307 308 309 309 308 307 306 304 304 304 303 300 299 297 295 293 293 294 295 297 297 299 301 304 308 310 312 314 313 313 314 314 313 312 310 307 302 298 295 293 292 292 295 297 300 303 305 306 305 304 305 306 307 308 309 308 304 298 293 289 285
285 286 287 288 290 293 293 295 298 301 306 308 308 308 308 309 309 309 308 307 307 308 308 307 308 308 309 309 308 307 305 305 304 304 302 299 297 295 294 294 294 295 298 299 299 301 304 308 311 312 312 313 312 313 313 312 311 309 307 305 302 298 297 295 294 294 295 298 301 304 305 305 305 305 306 307 309 311 312 312 306 299 296 294 292
285 286 287 288 290 292 293 295 298 301 304 307 307 308 308 309 309 308 308 308 308 308 308 307 308 308 309 309 308 307 305 305 304 303 301 297 294 293 294 295 296 297 299 300 300 301 306 310 312 313 312 310 308 308 308 307 306 306 305 304 302 298 296 295 294 295 296 298 301 304 306 305 305 306 307 309 311 314 317 317 311 305 304 304 304
284 285 286 287 289 292 294 297 300 302 303 304 306 307 308 309 308 308 308 309 309 309 308 308 308 308 309 309 308 307 306 305 304 302 300 296 292 292 293 293 296 299 300 300 299 299 303 308 311 313 312 308 304 302 302 302 303 304 304 303 302 298 295 294 294 295 297 298 301 305 307 306 306 308 309 311 314 317 320 322 319 314 315 316 315
282 285 286 287 289 293 296 298 300 302 301 303 305 307 308 308 308 308 308 309 309 309 308 308 308 309 310 309 308 307 307 306 305 302 299 294 290 289 290 291 296 300 301 301 300 297 298 305 309 311 311 309 305 302 300 299 301 302 304 303 302 300 297 295 295 296 297 299 302 306 308 307 307 309 312 314 316 319 323 326 325 322 322 324 322
281 284 285 287 291 294 297 298 299 300 301 303 306 306 306 306 307 307 308 308 309 309 309 308 309 310 311 309 308 308 307 306 304 302 296 291 287 287 288 290 295 299 300 302 300 295 294 301 308 311 311 311 308 304 302 301 302 303 304 303 303 301 298 297 296 296 297 299 302 305 307 308 308 310 312 315 317 320 324 329 330 327 325 326 325
280 283 285 289 294 296 296 296 297 299 302 304 305 305 305 306 306 306 308 308 309 309 309 309 310 311 311 310 309 308 307 306 303 300 293 287 284 285 287 290 294 297 298 299 298 294 291 295 303 308 310 311 309 307 305 304 305 305 305 306 305 304 301 299 297 297 297 300 302 304 307 308 309 310 312 315 318 321 324 329 332 330 326 326 326
280 283 286 291 295 295 295 296 297 300 302 304 304 304 304 305 305 306 308 308 309 308 309 309 311 313 312 312 310 309 308 306 303 298 291 286 284 284 287 291 294 295 295 296 295 292 289 290 295 301 306 308 308 307 306 306 307 307 308 309 310 308 305 303 301 299 299 300 302 304 307 309 310 311 312 314 317 320 323 326 331 332 328 325 324
284 284 288 292 294 294 295 297 298 300 301 302 302 303 304 304 305 306 308 308 308 308 309 310 312 314 314 313 311 310 309 307 303 296 290 287 285 286 288 291 293 293 293 294 293 291 289 289 291 296 301 305 306 306 305 306 307 309 311 312 312 311 309 307 305 303 302 302 303 304 307 309 311 311 312 313 316 318 320 323 327 331 330 324 320
287 285 287 290 291 293 295 297 298 300 300 301 302 302 303 304 305 307 308 308 308 308 309 310 313 314 314 313 313 312 312 309 304 297 291 288 287 287 289 291 291 291 291 293 293 291 290 289 291 295 300 304 306 306 306 307 309 311 312 313 313 312 311 309 308 306 305 304 304 305 307 308 310 310 311 312 313 315 317 320 323 326 328 325 318
285 284 287 289 290 293 295 296 297 298 299 300 301 301 302 304 305 306 307 307 307 307 308 310 312 314 313 313 314 315 315 312 306 299 293 290 289 288 289 290 289 289 289 291 293 291 289 290 292 296 301 304 305 306 307 307 308 310 311 311 311 311 310 310 309 308 307 306 306 306 306 307 308 309 309 309 310 311 313 315 318 321 324 324 319
281 283 288 288 289 292 294 295 296 296 297 299 300 300 301 303 304 305 306 306 306 306 306 308 311 313 312 313 315 317 317 314 308 301 296 293 290 290 289 289 287 286 287 288 289 290 289 290 293 296 300 302 303 303 304 304 305 307 308 309 309 309 309 309 310 309 308 307 307 306 306 307 307 308 307 306 306 307 308 310 314 316 318 320 319
280 285 287 287 289 292 294 295 295 294 296 297 298 299 300 302 303 303 304 304 303 304 305 307 310 311 312 313 316 319 318 316 311 305 299 296 293 292 290 287 284 283 283 284 284 286 287 288 290 293 296 298 299 300 301 302 304 305 306 307 308 309 309 309 310 310 310 309 308 307 307 306 306 306 305 303 302 303 303 304 308 312 313 314 315
282 284 286 288 290 292 293 294 294 295 296 297 297 299 300 301 301 301 301 301 302 302 303 306 308 310 311 313 316 319 319 317 313 308 303 300 296 293 291 287 283 281 280 280 280 281 283 285 286 289 291 293 294 295 298 300 302 304 305 306 307 308 309 310 310 311 311 310 309 308 307 306 306 304 303 301 299 299 298 298 302 306 309 309 310
284 286 288 291 292 292 293 295 295 296 297 298 300 300 301 300 300 299 298 299 300 301 302 304 307 308 309 312 316 319 319 318 315 311 307 302 298 295 293 289 285 283 281 280 279 279 280 282 285 287 288 289 290 291 294 298 301 302 304 305 306 307 308 310 312 313 313 313 312 311 310 308 307 305 302 299 297 296 294 292 294 299 303 305 305
286 288 290 291 292 293 295 295 293 295 298 299 301 301 301 300 299 297 296 298 299 299 301 303 305 306 308 310 315 318 318 317 316 313 310 304 299 297 295 292 290 287 284 283 282 281 280 282 285 287 288 288 289 291 293 297 299 301 302 304 306 308 309 311 314 317 316 317 316 315 314 312 310 308 304 300 296 293 290 287 287 291 296 299 301
287 288 289 290 292 295 295 293 291 295 298 298 299 300 299 298 297 296 295 296 297 298 299 301 302 304 306 308 312 315 315 315 315 314 310 306 300 297 296 294 292 290 288 286 285 283 282 282 284 285 287 289 291 293 295 297 299 300 301 305 308 309 311 313 316 319 318 318 317 315 314 313 311 308 305 302 298 293 288 283 281 285 290 294 297
287 287 288 290 293 294 293 291 290 294 296 296 297 298 298 297 295 295 294 295 296 297 298 299 300 302 303 305 308 310 310 311 311 310 309 305 300 298 296 295 293 291 290 289 288 287 285 284 283 284 286 290 293 295 297 299 300 300 301 306 308 308 310 312 315 320 319 318 317 315 313 312 311 309 306 302 298 293 288 282 278 279 284 289 293
289 289 290 292 294 294 292 291 292 294 295 294 295 296 296 295 294 293 292 293 294 295 296 297 298 299 300 302 304 305 305 305 305 305 306 305 302 300 298 296 293 292 292 291 291 290 289 288 287 287 288 291 294 296 298 300 301 300 301 305 307 307 308 310 315 320 319 317 317 316 314 313 311 310 308 303 298 293 288 282 278 275 278 284 289
290 290 292 294 294 294 293 294 294 293 293 293 294 294 294 293 292 291 291 292 292 293 293 294 295 295 296 298 300 300 300 299 300 302 305 307 306 304 301 298 296 295 295 295 294 294 294 293 293 292 293 295 296 298 300 302 302 299 298 302 305 306 307 308 312 317 317 314 315 316 315 314 311 310 309 307 302 296 289 282 277 275 276 280 285
290 292 293 293 293 294 294 295 296 295 294 293 294 293 292 292 290 290 290 290 290 290 290 291 292 293 294 296 296 296 296 296 298 301 305 309 308 307 304 300 297 297 297 298 299 299 299 299 298 298 299 299 300 302 301 301 302 298 296 300 303 304 304 305 309 313 314 312 312 313 315 315 314 312 311 310 306 301 292 282 276 274 274 277 281
291 292 294 295 297 299 298 297 297 297 296 294 294 293 291 290 289 290 289 288 288 288 289 290 290 292 293 293 293 293 293 294 296 300 305 307 308 306 303 299 297 297 300 303 304 305 306 305 303 303 304 304 304 305 302 301 302 298 294 296 299 299 300 302 306 310 311 310 309 309 312 315 317 316 314 314 311 306 296 283 276 274 272 274 278
294 295 299 303 305 307 306 303 300 298 296 296 294 292 290 289 289 289 288 287 288 288 288 289 290 291 292 291 291 290 290 291 294 298 301 305 307 306 305 306 303 303 309 311 310 313 312 309 307 307 308 307 306 305 302 300 301 299 294 291 293 295 299 303 306 308 310 309 308 307 308 311 315 317 317 316 315 310 300 285 277 276 274 272 275
298 302 307 311 312 312 313 309 304 299 295 295 294 291 290 289 289 287 287 288 288 288 288 289 290 290 291 290 290 290 289 290 292 295 298 303 303 300 299 300 296 301 311 312 313 317 314 309 307 307 308 308 306 303 301 298 298 297 295 291 291 294 299 303 305 307 309 309 308 306 305 307 311 315 318 318 318 313 303 288 278 276 277 275 275
300 307 311 313 313 312 312 309 304 298 293 293 293 291 290 289 288 287 287 288 287 288 288 288 289 290 290 289 289 290 290 291 292 294 297 296 293 287 283 283 284 294 305 308 312 316 314 309 306 306 306 306 305 303 301 300 298 296 294 291 290 293 298 302 304 305 307 308 307 306 305 304 306 311 316 317 318 315 304 290 280 277 278 279 279
292 301 305 306 308 308 306 305 301 297 292 291 291 289 289 288 286 287 286 286 286 287 287 287 289 290 289 289 290 290 291 293 294 294 295 289 284 283 277 277 284 296 302 306 312 314 313 310 306 305 305 304 303 302 302 301 300 299 297 294 292 293 297 301 303 303 305 306 306 304 303 304 305 308 312 314 316 315 307 293 282 279 280 281 281
277 293 300 302 307 304 298 300 298 296 294 290 288 287 285 284 284 285 284 284 285 286 287 287 288 289 290 290 290 290 291 293 294 292 292 286 281 286 282 278 285 295 302 307 312 312 311 309 306 303 302 301 300 300 300 300 299 299 299 297 296 296 298 300 302 302 303 304 304 304 303 303 304 307 310 311 313 314 310 297 281 275 277 282 284
258 276 292 299 299 290 283 290 294 297 297 289 284 282 280 281 282 283 282 282 283 283 284 284 286 287 287 289 289 289 289 290 291 290 290 285 283 293 293 283 285 293 302 309 311 310 309 307 304 303 301 300 299 298 298 298 298 298 297 297 297 298 299 301 301 301 302 302 303 303 303 303 303 304 306 308 309 312 310 298 282 271 269 276 283
242 246 260 270 272 271 270 276 288 297 295 289 283 279 278 279 279 280 279 278 277 278 279 281 283 284 285 286 287 286 285 286 287 288 288 286 289 299 302 299 299 302 308 312 312 311 310 308 306 304 302 301 300 299 298 297 296 296 296 296 297 297 298 299 299 299 300 301 301 301 301 301 301 302 303 304 305 307 308 299 284 273 267 266 272
235 234 241 245 247 252 257 264 282 296 294 289 282 277 275 274 274 274 272 273 273 275 277 280 283 284 286 285 284 284 285 285 283 287 288 288 295 300 306 312 311 312 314 316 317 317 316 314 311 308 306 304 302 300 299 296 295 294 295 295 296 296 296 296 296 296 297 298 299 299 299 299 298 298 299 301 302 303 305 300 286 274 267 261 260
228 231 234 238 241 236 239 256 278 292 292 285 277 271 269 267 267 266 269 273 274 275 279 285 289 290 293 290 289 290 290 287 282 286 285 288 298 302 309 316 315 317 320 322 321 321 320 317 314 311 309 306 303 302 300 298 297 296 296 296 296 296 295 296 296 296 295 296 296 296 296 295 294 294 295 297 299 300 301 299 290 277 268 261 257
223 229 230 232 235 229 233 255 278 291 291 283 274 263 258 257 257 263 273 279 278 281 286 293 296 297 299 296 296 299 299 295 287 281 281 291 302 309 316 320 319 320 323 325 323 323 322 320 316 313 310 307 304 302 300 299 298 297 297 297 296 295 295 295 295 296 296 295 295 295 294 293 291 290 291 293 294 296 297 296 291 282 273 265 259
226 228 229 229 231 230 239 262 285 293 288 278 266 252 247 249 255 268 280 283 280 280 285 293 299 297 297 300 300 307 311 306 297 284 283 294 306 314 320 323 323 322 325 326 325 324 322 320 317 314 312 309 306 303 301 300 299 298 298 297 297 296 295 295 295 295 295 296 295 295 293 292 290 288 288 289 290 292 293 294 291 283 276 271 264
229 229 230 229 230 233 247 275 291 292 284 272 256 243 240 246 258 273 280 281 273 270 280 288 290 288 291 292 281 290 305 304 299 289 285 295 309 318 323 325 324 322 324 324 324 323 321 319 318 317 316 314 311 308 306 304 303 302 301 299 298 297 296 295 295 294 294 294 294 294 292 291 289 287 286 286 286 288 291 293 291 282 274 272 270
228 232 233 233 232 234 256 285 292 291 285 268 250 239 238 246 258 264 269 271 260 264 278 280 274 272 274 260 249 266 285 287 284 283 282 291 310 321 323 323 320 320 322 323 323 322 321 320 319 321 321 320 318 315 314 313 312 310 307 305 303 301 299 297 296 295 294 294 293 292 291 290 289 286 285 284 285 286 288 291 290 283 275 272 271
226 231 232 235 235 236 253 278 283 285 282 263 249 241 241 248 257 258 260 263 260 266 272 269 258 254 261 255 244 255 259 254 263 274 277 288 311 321 320 320 320 321 322 322 322 321 321 321 321 323 324 324 323 322 322 322 321 320 316 313 310 307 304 302 299 297 296 294 293 292 291 290 288 287 285 283 283 284 285 286 286 283 278 273 271
226 226 228 234 237 240 248 260 271 279 277 264 252 246 246 254 260 258 257 262 269 270 264 257 249 249 262 257 242 243 249 251 256 262 266 283 311 318 315 318 319 320 321 320 320 320 320 320 321 323 324 325 324 323 324 324 324 324 322 319 317 314 310 307 303 300 297 295 293 291 290 288 287 287 285 284 282 281 281 281 280 280 277 273 271
228 225 226 233 239 244 247 250 260 270 272 267 258 253 254 258 262 259 259 264 269 267 257 252 250 253 260 251 239 242 252 258 254 255 259 273 306 317 310 313 316 316 318 318 317 317 318 319 320 322 323 323 321 320 320 320 321 322 323 322 320 317 314 310 306 303 300 297 294 292 289 288 286 285 284 283 282 280 280 277 275 276 275 271 269
229 226 227 233 238 243 245 246 253 259 264 264 261 262 261 261 262 259 259 264 266 267 261 256 252 254 257 244 233 233 235 241 246 253 257 263 292 312 308 307 311 313 315 315 315 315 317 319 320 322 323 322 320 318 318 319 320 321 322 322 320 318 315 312 308 304 302 298 296 293 290 288 286 284 282 281 281 280 279 277 274 274 272 266 264
232 230 231 235 239 243 246 249 252 255 259 262 263 267 265 262 264 262 261 262 263 268 265 258 255 257 259 247 231 227 230 239 249 254 255 258 277 300 308 307 308 311 313 313 313 314 316 318 320 322 322 322 320 319 318 319 320 321 321 321 320 317 315 312 309 305 302 300 297 294 291 288 286 284 282 281 280 279 278 276 274 272 269 263 260
232 234 236 237 239 244 248 250 252 254 255 258 263 267 266 264 266 265 264 259 256 262 263 257 254 255 259 250 234 230 235 242 248 251 253 259 269 286 305 308 307 310 311 311 312 313 315 317 319 320 321 322 322 321 321 320 321 322 321 318 317 316 313 311 308 306 303 301 298 296 293 290 287 285 283 281 281 280 278 275 273 270 266 261 257
233 236 238 238 239 244 249 249 251 253 252 255 260 264 264 265 267 267 265 259 252 255 256 251 250 253 258 251 237 235 241 243 245 249 254 263 267 275 296 307 307 309 310 310 311 312 314 316 317 319 320 322 323 324 323 323 324 325 322 317 315 314 312 310 308 306 304 301 299 297 295 293 290 287 285 282 281 280 278 275 273 269 265 261 256
236 238 239 240 240 244 247 247 250 253 253 254 258 262 264 263 263 263 263 260 255 255 254 250 250 254 261 256 242 240 246 247 248 250 255 263 266 271 291 304 307 308 309 309 310 312 313 314 315 317 319 321 323 324 322 321 323 327 326 322 319 318 315 313 310 308 305 303 300 298 296 294 292 290 286 283 281 280 278 276 274 271 266 263 260
237 240 241 242 243 245 247 247 249 253 255 257 258 261 263 259 257 259 261 260 261 261 256 252 251 254 264 264 250 245 250 252 251 251 257 264 266 274 290 301 305 307 308 309 310 310 311 312 313 315 317 320 321 321 319 317 320 326 327 325 324 324 324 321 317 312 308 305 302 299 297 295 292 290 287 284 282 280 279 277 274 272 268 265 264
236 239 242 243 244 247 248 247 249 253 257 258 257 257 257 254 255 257 258 260 263 262 257 255 255 258 267 268 255 250 254 255 253 256 261 266 269 277 290 299 303 305 307 308 309 309 310 311 312 313 315 317 318 318 316 316 317 322 324 323 320 320 323 325 323 319 314 308 304 300 298 296 293 290 288 286 284 282 279 277 274 272 270 267 265
235 238 241 243 244 247 248 247 249 253 255 254 256 257 253 251 254 257 256 258 259 257 255 256 258 260 267 270 262 256 255 255 255 258 262 266 271 279 289 297 300 303 306 308 308 308 308 309 310 312 314 315 315 315 314 314 315 318 321 322 319 314 315 319 322 322 319 312 307 303 299 295 293 291 289 287 286 284 281 278 275 272 270 270 267
237 238 240 243 245 247 248 250 252 253 253 253 258 260 254 250 253 255 255 255 253 254 254 256 259 261 266 273 269 261 257 255 255 258 263 269 274 281 289 294 297 301 306 307 307 306 306 307 309 310 312 312 313 313 313 313 314 316 319 321 321 316 313 314 317 319 320 316 309 304 300 297 293 291 288 287 286 284 282 278 275 272 270 269 269
239 240 240 242 246 247 249 254 255 254 254 254 259 261 257 252 252 253 255 254 251 253 255 257 259 261 268 275 272 263 258 256 257 262 268 273 277 282 288 293 296 301 304 306 305 305 305 306 308 309 310 310 311 311 311 311 313 315 318 319 320 318 314 314 315 315 317 317 311 303 299 297 294 291 288 286 284 283 281 278 275 272 269 267 267
239 240 241 243 246 247 249 254 258 258 256 253 255 258 255 252 251 250 253 254 253 255 257 259 260 263 271 274 267 260 259 261 264 268 271 274 278 284 289 293 296 300 303 304 304 304 305 306 307 308 309 309 309 309 309 310 312 314 317 318 318 316 315 314 314 314 315 316 313 305 298 294 291 289 287 285 284 282 280 278 276 273 269 266 265
Height
10888 10888 10888 10889 10889 10888 10888 10888 10888 10888 10888 10887 10886 10885 10884 10883 10881 10880 10878 10877 10876 10874 10872 10871 10869 10868 10866 10864 10862 10860 10859 10857 10857 10856 10855 10854 10854 10853 10853 10852 10851 10851 10850 10850 10849 10848 10847 10846 10845 10844 10843 10842 10841 10841 10840 10839 10838 10837 10837 10836 10835 10835 10834 10834 10833 10833 10832 10831 10830 10829 10828 10827 10825 10824 10822 10821 10819 10817 10815 10813 10811 10809 10808 10807 10806
10886 10886 10886 10887 10887 10887 10886 10886 10886 10886 10885 10885 10884 10883 10882 10881 10879 10878 10877 10875 10874 10872 10871 10869 10868 10866 10864 10862 10861 10859 10857 10856 10855 10855 10854 10853 10852 10852 10851 10851 10850 10850 10849 10848 10848 10847 10846 10845 10844 10843 10842 10841 10840 10839 10839 10838 10837 10836 10836 10835 10834 10833 10833 10832 10832 10831 10830 10829 10829 10827 10826 10825 10823 10822 10820 10819 10817 10815 10813 10811 10809 10807 10805 10804 10803
10884 10884 10885 10885 10885 10886 10885 10884 10884 10884 10883 10883 10882 10881 10880 10879 10877 10876 10875 10873 10872 10870 10869 10868 10866 10864 10863 10861 10859 10858 10856 10855 10854 10853 10853 10852 10851 10850 10850 10849 10849 10848 10848 10847 10846 10845 10844 10843 10843 10842 10841 10840 10839 10838 10837 10837 10836 10835 10835 10834 10833 10832 10832 10831 10830 10829 10829 10828 10827 10826 10824 10823 10822 10820 10818 10816 10814 10813 10811 10808 10806 10804 10803 10801 10800
10882 10883 10883 10883 10884 10884 10883 10883 10882 10882 10881 10881 10880 10879 10878 10877 10875 10874 10873 10871 10870 10869 10867 10866 10864 10863 10861 10859 10858 10856 10855 10854 10853 10852 10851 10850 10849 10849 10848 10848 10847 10847 10846 10846 10845 10844 10843 10842 10841 10841 10840 10839 10839 10838 10837 10836 10835 10834 10834 10833 10832 10831 10830 10829 10829 10828 10827 10826 10825 10824 10822 10821 10820 10818 10816 10814 10812 10811 10808 10806 10804 10802 10801 10799 10798
10880 10881 10881 10882 10882 10882 10881 10881 10880 10880 10879 10878 10878 10877 10876 10875 10874 10872 10871 10869 10868 10867 10866 10864 10863 10861 10859 10857 10856 10855 10854 10853 10852 10851 10850 10849 10848 10848 10847 10847 10846 10846 10845 10844 10843 10843 10842 10841 10840 10840 10839 10838 10838 10837 10836 10835 10834 10833 10832 10831 10830 10829 10829 10828 10827 10826 10825 10824 10823 10822 10820 10819 10818 10816 10814 10812 10810 10809 10806 10804 10802 10800 10799 10798 10796
10878 10879 10879 10880 10881 10880 10880 10879 10878 10878 10877 10876 10876 10875 10874 10873 10872 10870 10869 10868 10866 10865 10864 10862 10861 10859 10857 10856 10854 10853 10852 10851 10850 10850 10849 10848 10847 10846 10846 10845 10845 10844 10844 10843 10842 10841 10841 10840 10839 10839 10838 10837 10837 10836 10835 10834 10833 10832 10831 10830 10829 10828 10827 10826 10825 10824 10823 10822 10821 10820 10818 10817 10816 10814 10812 10810 10809 10807 10805 10802 10800 10799 10797 10796 10795
10876 10877 10877 10878 10879 10878 10878 10877 10876 10876 10875 10875 10874 10873 10872 10871 10870 10869 10867 10866 10864 10863 10862 10861 10859 10857 10856 10854 10853 10852 10851 10850 10849 10848 10847 10847 10846 10845 10845 10844 10843 10843 10842 10841 10841 10840 10839 10839 10838 10837 10837 10836 10835 10834 10834 10833 10832 10831 10830 10829 10827 10826 10825 10824 10823 10823 10822 10820 10819 10818 10816 10815 10813 10812 10810 10808 10807 10805 10803 10801 10799 10797 10795 10794 10793
10875 10875 10876 10876 10877 10877 10876 10876 10875 10874 10874 10873 10872 10871 10870 10869 10868 10867 10866 10864 10862 10861 10860 10859 10857 10856 10854 10853 10851 10850 10849 10848 10847 10847 10846 10845 10844 10844 10843 10843 10842 10841 10841 10840 10839 10838 10838 10837 10837 10836 10835 10835 10834 10833 10832 10831 10830 10829 10828 10827 10826 10825 10824 10823 10822 10821 10820 10818 10817 10816 10814 10813 10811 10810 10808 10807 10805 10803 10801 10799 10797 10795 10794 10793 10792
10872 10874 10874 10875 10875 10875 10874 10873 10873 10872 10872 10871 10870 10869 10868 10867 10866 10865 10864 10862 10861 10859 10858 10857 10856 10854 10853 10851 10850 10849 10848 10847 10846 10845 10844 10844 10843 10842 10842 10841 10841 10840 10839 10839 10838 10837 10836 10836 10835 10835 10834 10833 10832 10831 10830 10830 10829 10828 10827 10826 10825 10823 10822 10821 10820 10819 10818 10816 10815 10814 10812 10811 10809 10808 10806 10805 10803 10801 10799 10798 10796 10794 10793 10791 10790
10871 10872 10873 10873 10873 10872 10872 10871 10871 10870 10870 10869 10868 10867 10866 10865 10864 10863 10862 10860 10859 10857 10856 10855 10854 10852 10851 10850 10848 10847 10846 10845 10845 10844 10843 10842 10842 10841 10841 10840 10839 10839 10838 10837 10836 10836 10835 10834 10834 10833 10832 10831 10831 10830 10829 10828 10827 10826 10825 10824 10823 10822 10820 10819 10818 10817 10815 10814 10813 10812 10810 10809 10807 10806 10804 10803 10801 10799 10798 10796 10794 10793 10791 10790 10789
10870 10871 10871 10872 10871 10871 10870 10869 10869 10868 10867 10867 10866 10865 10864 10863 10861 10861 10859 10858 10857 10855 10854 10853 10852 10851 10849 10848 10847 10846 10845 10844 10843 10842 10842 10841 10840 10840 10839 10839 10838 10837 10836 10836 10835 10834 10833 10833 10832 10832 10831 10830 10829 10828 10827 10827 10826 10825 10824 10823 10821 10820 10819 10818 10817 10815 10813 10812 10811 10810 10808 10807 10805 10804 10803 10801 10800 10798 10796 10795 10793 10792 10790 10789 10787
10869 10868 10869 10870 10869 10869 10868 10867 10866 10866 10865 10865 10864 10863 10861 10860 10859 10858 10857 10856 10855 10853 10852 10851 10850 10849 10847 10846 10845 10844 10843 10843 10842 10841 10840 10840 10839 10839 10838 10837 10836 10836 10835 10834 10833 10833 10832 10831 10831 10830 10829 10828 10827 10826 10826 10825 10824 10823 10822 10821 10820 10819 10817 10816 10815 10813 10812 10810 10809 10808 10806 10805 10804 10802 10801 10799 10798 10796 10795 10793 10792 10790 10789 10788 10786
10867 10866 10867 10867 10867 10867 10866 10865 10865 10864 10863 10862 10861 10860 10859 10858 10857 10856 10855 10854 10853 10851 10850 10848 10847 10847 10846 10845 10844 10843 10842 10841 10840 10840 10839 10839 10838 10837 10837 10836 10835 10834 10834 10833 10832 10831 10830 10830 10829 10828 10828 10827 10826 10825 10824 10823 10823 10822 10821 10820 10818 10817 10816 10814 10813 10812 10810 10809 10807 10806 10804 10803 10802 10800 10799 10798 10796 10795 10793 10792 10790 10789 10788 10786 10785
10864 10864 10865 10865 10865 10865 10864 10864 10863 10862 10861 10860 10859 10858 10857 10856 10855 10854 10853 10852 10850 10849 10848 10846 10846 10845 10844 10843 10842 10841 10840 10840 10839 10838 10838 10837 10837 10836 10835 10834 10833 10833 10832 10831 10830 10830 10829 10828 10827 10827 10826 10825 10824 10823 10822 10822 10821 10820 10819 10818 10816 10815 10814 10813 10811 10810 10808 10807 10805 10804 10802 10801 10800 10798 10797 10796 10794 10793 10791 10790 10789 10787 10786 10785 10783
10862 10862 10863 10862 10863 10863 10862 10862 10861 10860 10859 10858 10857 10856 10855 10854 10853 10852 10851 10849 10848 10847 10845 10844 10844 10843 10842 10841 10841 10840 10839 10838 10838 10837 10837 10836 10835 10835 10834 10833 10832 10831 10830 10829 10829 10828 10827 10826 10826 10825 10824 10823 10822 10821 10821 10820 10819 10818 10817 10816 10815 10813 10812 10810 10809 10808 10806 10805 10803 10802 10800 10799 10797 10796 10795 10793 10792 10791 10790 10788 10787 10786 10784 10783 10781
10860 10861 10861 10860 10861 10861 10860 10860 10859 10858 10857 10856 10855 10854 10853 10852 10851 10849 10848 10847 10846 10844 10843 10842 10842 10841 10841 10840 10839 10839 10838 10837 10836 10836 10835 10835 10834 10833 10832 10831 10830 10829 10829 10827 10827 10826 10825 10825 10824 10823 10823 10822 10821 10820 10819 10818 10817 10816 10815 10814 10813 10811 10810 10808 10807 10806 10804 10802 10801 10799 10798 10796 10795 10793 10792 10791 10790 10788 10787 10786 10785 10784 10782 10781 10780
10857 10858 10858 10858 10858 10858 10857 10856 10856 10855 10854 10854 10853 10851 10850 10849 10848 10847 10846 10845 10843 10842 10841 10840 10840 10839 10839 10838 10838 10837 10837 10836 10835 10835 10834 10833 10832 10831 10831 10830 10829 10828 10827 10826 10825 10824 10824 10823 10822 10822 10821 10820 10819 10818 10817 10816 10815 10814 10813 10812 10811 10809 10808 10806 10805 10803 10802 10800 10798 10797 10795 10793 10792 10790 10789 10788 10787 10786 10785 10784 10783 10781 10780 10779 10778
10854 10855 10855 10855 10854 10854 10853 10853 10852 10852 10851 10851 10850 10848 10847 10846 10845 10844 10843 10842 10841 10839 10838 10838 10837 10837 10837 10836 10836 10835 10835 10834 10834 10833 10832 10831 10830 10829 10829 10828 10827 10826 10825 10824 10823 10822 10822 10821 10821 10820 10819 10818 10817 10816 10815 10814 10814 10812 10811 10810 10809 10807 10806 10805 10804 10802 10799 10798 10796 10794 10793 10791 10790 10788 10786 10785 10784 10783 10782 10781 10780 10779 10778 10777 10776
10851 10851 10851 10851 10851 10851 10850 10849 10849 10848 10848 10848 10847 10845 10844 10843 10842 10841 10840 10839 10838 10837 10835 10835 10835 10835 10835 10834 10834 10833 10833 10832 10832 10831 10830 10829 10828 10827 10826 10826 10825 10825 10824 10822 10822 10821 10820 10820 10819 10818 10817 10816 10815 10814 10813 10813 10812 10811 10809 10808 10807 10805 10804 10803 10802 10801 10798 10796 10795 10793 10791 10789 10788 10786 10784 10782 10781 10780 10779 10778 10777 10776 10775 10774 10774
10848 10848 10847 10848 10848 10847 10847 10846 10846 10845 10845 10844 10844 10842 10841 10840 10839 10838 10837 10836 10835 10834 10833 10833 10833 10833 10832 10832 10832 10831 10831 10830 10829 10829 10828 10827 10826 10825 10824 10823 10823 10822 10822 10821 10820 10819 10819 10818 10817 10817 10816 10815 10813 10812 10811 10810 10810 10809 10808 10806 10805 10804 10802 10801 10801 10800 10796 10794 10793 10791 10789 10788 10786 10784 10782 10780 10778 10777 10776 10775 10774 10774 10773 10772 10771
10845 10844 10844 10845 10845 10844 10844 10843 10843 10842 10842 10841 10840 10840 10838 10838 10837 10835 10834 10834 10833 10832 10830 10830 10830 10830 10830 10830 10829 10829 10828 10827 10827 10826 10825 10825 10824 10823 10822 10821 10820 10820 10819 10819 10818 10818 10817 10816 10815 10815 10814 10813 10812 10810 10809 10808 10807 10806 10806 10805 10804 10802 10801 10799 10798 10798 10795 10792 10791 10789 10787 10786 10784 10782 10780 10778 10776 10774 10773 10772 10771 10771 10770 10770 10769
10842 10841 10842 10842 10840 10840 10840 10840 10840 10839 10839 10838 10837 10837 10836 10835 10834 10832 10832 10831 10830 10829 10828 10828 10828 10828 10827 10827 10826 10826 10825 10824 10824 10823 10823 10823 10823 10822 10821 10820 10818 10817 10817 10816 10816 10816 10815 10814 10814 10813 10812 10811 10810 10809 10807 10806 10805 10804 10804 10803 10802 10801 10800 10798 10796 10796 10794 10791 10789 10787 10785 10783 10781 10780 10777 10775 10773 10771 10770 10769 10768 10768 10768 10767 10766
10838 10837 10839 10838 10837 10837 10837 10837 10837 10836 10836 10835 10835 10834 10833 10832 10830 10829 10829 10828 10827 10827 10826 10825 10825 10825 10825 10824 10824 10823 10822 10821 10821 10821 10822 10821 10821 10820 10819 10818 10817 10816 10814 10814 10813 10813 10813 10813 10812 10811 10811 10810 10809 10807 10805 10804 10803 10802 10802 10801 10801 10799 10798 10796 10794 10794 10792 10789 10788 10785 10783 10780 10778 10777 10775 10773 10770 10768 10767 10766 10766 10765 10765 10764 10764
10834 10833 10835 10835 10834 10835 10834 10835 10834 10834 10833 10832 10832 10831 10830 10829 10828 10827 10826 10825 10824 10824 10823 10823 10823 10822 10822 10821 10820 10820 10819 10819 10819 10819 10820 10819 10818 10817 10816 10816 10815 10814 10813 10812 10811 10811 10810 10810 10810 10809 10809 10808 10807 10806 10804 10803 10802 10801 10800 10800 10799 10797 10796 10794 10792 10791 10790 10787 10786 10784 10781 10778 10776 10774 10772 10770 10768 10766 10764 10763 10762 10762 10762 10761 10761
10829 10829 10832 10832 10831 10831 10831 10832 10831 10830 10830 10829 10829 10828 10827 10826 10825 10824 10823 10822 10822 10821 10821 10821 10820 10819 10819 10817 10817 10816 10816 10816 10817 10817 10817 10816 10815 10814 10814 10813 10813 10812 10812 10811 10810 10809 10808 10808 10807 10807 10807 10806 10805 10804 10803 10801 10800 10799 10798 10798 10796 10795 10793 10791 10789 10788 10787 10785 10783 10782 10779 10777 10774 10771 10769 10767 10765 10763 10761 10760 10760 10759 10759 10759 10758
10824 10825 10828 10828 10827 10826 10826 10826 10826 10826 10825 10825 10825 10824 10824 10823 10822 10821 10820 10819 10819 10819 10819 10818 10818 10817 10816 10814 10813 10813 10813 10814 10814 10814 10814 10813 10812 10812 10812 10811 10810 10810 10810 10810 10809 10808 10807 10806 10805 10805 10804 10803 10802 10802 10801 10800 10799 10798 10796 10795 10794 10792 10791 10789 10786 10785 10784 10783 10781 10779 10777 10775 10773 10770 10767 10764 10763 10761 10759 10758 10757 10757 10757 10756 10756
10820 10821 10823 10823 10822 10821 10819 10819 10819 10820 10820 10820 10820 10820 10821 10820 10818 10817 10817 10817 10816 10816 10816 10816 10815 10814 10813 10811 10810 10809 10809 10811 10811 10811 10811 10811 10810 10810 10810 10809 10808 10808 10808 10808 10808 10807 10806 10805 10804 10803 10802 10800 10799 10798 10797 10796 10796 10795 10794 10793 10792 10790 10788 10786 10784 10782 10781 10780 10778 10776 10774 10772 10771 10769 10766 10763 10760 10759 10757 10756 10755 10754 10754 10754 10753
10817 10818 10819 10818 10817 10815 10812 10812 10813 10813 10814 10815 10815 10816 10817 10816 10815 10814 10814 10813 10813 10813 10813 10812 10812 10811 10810 10808 10807 10806 10807 10808 10808 10807 10808 10808 10807 10807 10807 10807 10806 10806 10806 10806 10806 10805 10804 10803 10802 10801 10800 10798 10797 10796 10794 10793 10791 10790 10790 10789 10789 10788 10786 10784 10781 10779 10778 10777 10775 10774 10772 10769 10768 10766 10764 10762 10759 10756 10755 10753 10753 10752 10752 10751 10751
10820 10819 10818 10817 10814 10810 10806 10805 10806 10808 10810 10810 10810 10812 10812 10811 10811 10810 10810 10810 10809 10809 10809 10809 10808 10808 10807 10805 10804 10803 10804 10805 10804 10804 10804 10804 10805 10805 10805 10805 10805 10804 10804 10804 10804 10803 10802 10801 10800 10799 10798 10796 10795 10794 10792 10791 10789 10788 10786 10785 10784 10784 10783 10781 10779 10776 10774 10773 10772 10770 10769 10767 10765 10763 10761 10760 10757 10755 10752 10751 10750 10750 10749 10748 10748
10824 10825 10824 10821 10817 10810 10804 10801 10801 10804 10806 10806 10806 10807 10807 10807 10808 10807 10807 10807 10806 10805 10805 10805 10804 10804 10803 10802 10801 10800 10801 10802 10801 10801 10801 10801 10802 10803 10803 10803 10803 10802 10802 10802 10801 10800 10799 10798 10797 10796 10795 10794 10793 10792 10791 10789 10787 10786 10784 10782 10781 10779 10778 10778 10776 10773 10770 10769 10769 10767 10765 10764 10762 10760 10758 10757 10755 10753 10751 10749 10748 10747 10746 10746 10745
10823 10827 10827 10823 10816 10808 10802 10797 10797 10800 10801 10803 10803 10803 10803 10804 10805 10804 10803 10803 10802 10802 10801 10801 10801 10800 10800 10799 10798 10797 10797 10798 10798 10798 10798 10799 10799 10800 10800 10800 10800 10800 10799 10798 10797 10796 10795 10794 10793 10793 10792 10791 10790 10789 10788 10787 10785 10783 10782 10780 10778 10776 10775 10774 10773 10771 10768 10765 10764 10763 10761 10760 10758 10756 10755 10753 10752 10750 10748 10747 10745 10744 10743 10743 10742
10816 10822 10822 10815 10808 10804 10799 10795 10795 10796 10797 10799 10799 10799 10800 10801 10802 10801 10800 10799 10798 10798 10798 10798 10798 10797 10797 10796 10795 10794 10794 10795 10795 10796 10796 10796 10797 10797 10797 10796 10796 10796 10795 10794 10793 10792 10791 10790 10789 10788 10788 10787 10786 10785 10784 10783 10782 10780 10779 10777 10775 10773 10771 10770 10769 10768 10766 10762 10760 10760 10758 10756 10754 10753 10751 10750 10748 10747 10745 10744 10742 10741 10740 10740 10739
10810 10813 10811 10802 10796 10796 10795 10793 10793 10793 10794 10795 10796 10796 10797 10798 10798 10797 10796 10796 10795 10795 10795 10795 10795 10794 10794 10793 10792 10792 10792 10792 10793 10793 10793 10794 10794 10794 10793 10792 10792 10791 10790 10789 10789 10788 10787 10786 10785 10784 10783 10782 10781 10780 10779 10778 10777 10776 10774 10773 10771 10769 10767 10765 10764 10763 10762 10760 10757 10756 10755 10753 10751 10749 10748 10746 10744 10743 10742 10741 10740 10738 10737 10737 10736
10799 10798 10795 10788 10784 10786 10790 10791 10791 10791 10792 10791 10792 10794 10794 10794 10794 10794 10794 10793 10792 10792 10792 10791 10791 10791 10791 10790 10790 10789 10789 10789 10790 10790 10790 10790 10790 10790 10789 10788 10787 10787 10786 10786 10785 10784 10783 10782 10781 10780 10779 10778 10777 10776 10775 10774 10772 10771 10769 10768 10767 10765 10764 10761 10759 10757 10756 10755 10754 10752 10751 10749 10747 10745 10744 10743 10741 10739 10738 10737 10736 10735 10734 10733 10733
10786 10784 10781 10777 10778 10785 10789 10791 10791 10790 10789 10788 10789 10790 10790 10791 10791 10792 10791 10790 10790 10789 10789 10788 10788 10789 10789 10790 10790 10788 10787 10786 10787 10786 10787 10787 10787 10786 10785 10785 10784 10783 10783 10782 10781 10780 10779 10779 10778 10777 10775 10774 10773 10772 10770 10769 10768 10767 10765 10763 10762 10760 10759 10757 10755 10753 10751 10749 10748 10747 10746 10744 10743 10741 10740 10739 10737 10736 10734 10733 10733 10732 10731 10730 10729
10777 10776 10775 10776 10782 10788 10790 10791 10791 10789 10787 10786 10786 10787 10788 10788 10789 10789 10788 10788 10788 10789 10788 10787 10787 10788 10788 10789 10790 10788 10785 10784 10784 10783 10783 10783 10783 10783 10782 10781 10781 10781 10780 10779 10778 10777 10776 10775 10774 10774 10772 10771 10769 10768 10766 10765 10763 10762 10760 10758 10757 10755 10754 10752 10751 10749 10747 10745 10743 10742 10741 10740 10739 10737 10736 10734 10733 10732 10730 10729 10728 10728 10727 10727 10726
10772 10774 10778 10782 10787 10788 10788 10789 10788 10786 10785 10784 10784 10785 10786 10786 10786 10785 10784 10786 10787 10787 10786 10785 10786 10786 10785 10786 10785 10784 10782 10781 10781 10780 10780 10780 10780 10780 10779 10779 10779 10778 10777 10776 10776 10775 10774 10772 10771 10770 10769 10768 10766 10764 10762 10761 10759 10757 10755 10754 10752 10751 10749 10747 10745 10744 10742 10741 10739 10737 10736 10735 10734 10733 10731 10730 10728 10728 10727 10725 10724 10723 10723 10723 10722
10767 10772 10778 10782 10785 10785 10784 10785 10785 10785 10784 10782 10782 10783 10784 10784 10784 10783 10783 10784 10785 10784 10784 10783 10783 10782 10782 10782 10781 10780 10780 10779 10778 10777 10777 10777 10777 10777 10776 10776 10776 10775 10775 10774 10773 10772 10770 10769 10768 10766 10765 10764 10762 10760 10758 10756 10755 10753 10751 10749 10747 10746 10744 10742 10740 10739 10737 10736 10734 10733 10731 10730 10729 10727 10726 10725 10724 10723 10723 10722 10720 10719 10719 10719 10718
10763 10768 10774 10777 10780 10780 10780 10781 10783 10783 10782 10781 10781 10782 10782 10782 10782 10782 10782 10782 10782 10782 10782 10781 10781 10780 10780 10779 10779 10778 10777 10776 10776 10775 10774 10774 10774 10774 10774 10774 10773 10772 10772 10771 10770 10768 10767 10765 10764 10762 10761 10759 10757 10755 10754 10752 10751 10749 10747 10745 10743 10741 10739 10737 10736 10734 10732 10731 10730 10728 10727 10726 10724 10722 10721 10719 10719 10718 10718 10717 10717 10716 10716 10715 10714
10761 10764 10768 10771 10773 10774 10775 10779 10780 10780 10780 10779 10780 10781 10781 10781 10781 10781 10780 10779 10779 10780 10779 10779 10779 10778 10778 10778 10777 10776 10774 10773 10772 10772 10771 10771 10771 10771 10771 10771 10770 10769 10768 10767 10766 10765 10763 10761 10760 10759 10757 10755 10754 10752 10750 10748 10747 10746 10744 10741 10739 10737 10735 10733 10731 10729 10728 10726 10725 10723 10722 10721 10720 10718 10716 10714 10713 10713 10713 10712 10712 10712 10711 10711 10710
10758 10761 10763 10765 10767 10768 10771 10775 10776 10776 10778 10777 10778 10779 10779 10779 10779 10778 10778 10777 10776 10776 10777 10777 10777 10777 10776 10776 10775 10773 10772 10771 10770 10769 10769 10769 10769 10768 10768 10768 10767 10766 10765 10764 10763 10761 10760 10758 10756 10755 10753 10752 10751 10749 10747 10745 10743 10742 10741 10739 10736 10733 10731 10730 10727 10725 10723 10721 10720 10719 10717 10716 10715 10713 10711 10709 10708 10708 10708 10707 10707 10707 10706 10706 10705
10755 10757 10759 10760 10762 10764 10768 10770 10770 10772 10775 10775 10775 10776 10777 10776 10776 10776 10776 10775 10774 10773 10774 10774 10775 10774 10774 10773 10772 10771 10770 10769 10768 10768 10767 10767 10766 10766 10766 10765 10764 10763 10761 10760 10759 10758 10756 10754 10752 10750 10749 10748 10747 10746 10744 10742 10740 10738 10737 10736 10734 10730 10727 10725 10723 10720 10718 10717 10715 10714 10713 10711 10710 10708 10706 10704 10702 10702 10703 10702 10702 10702 10701 10700 10700
10751 10752 10754 10756 10759 10762 10764 10764 10765 10768 10772 10773 10773 10774 10774 10773 10773 10773 10773 10773 10772 10771 10770 10771 10772 10772 10771 10769 10769 10768 10768 10767 10767 10766 10765 10765 10764 10763 10762 10762 10761 10759 10758 10757 10756 10755 10753 10751 10749 10747 10745 10744 10743 10742 10740 10739 10737 10735 10733 10730 10729 10727 10723 10720 10719 10716 10713 10712 10710 10708 10707 10706 10705 10704 10702 10700 10698 10697 10697 10696 10696 10697 10696 10695 10695
10746 10747 10749 10753 10757 10758 10758 10759 10761 10765 10768 10769 10770 10772 10772 10770 10770 10769 10768 10769 10769 10768 10767 10768 10769 10768 10768 10766 10765 10764 10764 10764 10764 10763 10762 10762 10761 10760 10759 10759 10757 10756 10755 10754 10752 10751 10750 10748 10746 10744 10742 10740 10739 10738 10737 10736 10734 10732 10729 10726 10723 10722 10719 10716 10713 10712 10709 10706 10704 10703 10701 10700 10699 10699 10697 10696 10694 10692 10691 10691 10690 10690 10690 10690 10689
10743 10744 10747 10751 10753 10753 10753 10755 10758 10761 10763 10765 10766 10768 10767 10767 10766 10764 10764 10764 10765 10764 10764 10764 10764 10764 10764 10763 10762 10761 10760 10760 10759 10759 10759 10759 10758 10757 10756 10755 10754 10753 10751 10750 10749 10747 10746 10744 10742 10740 10738 10737 10736 10735 10734 10733 10731 10729 10726 10723 10720 10718 10715 10712 10708 10706 10705 10702 10699 10697 10696 10695 10693 10693 10692 10691 10689 10688 10686 10685 10685 10684 10684 10684 10683
10739 10742 10745 10748 10749 10748 10750 10753 10755 10757 10758 10760 10762 10762 10762 10762 10762 10761 10760 10760 10760 10759 10759 10758 10758 10759 10759 10759 10759 10758 10757 10756 10756 10756 10756 10756 10755 10754 10753 10751 10750 10749 10748 10746 10745 10743 10742 10740 10738 10736 10734 10733 10732 10731 10730 10730 10728 10726 10724 10721 10719 10716 10713 10710 10705 10701 10700 10700 10696 10692 10690 10690 10688 10687 10687 10686 10684 10683 10681 10680 10679 10679 10679 10678 10678
10736 10738 10741 10743 10744 10745 10748 10750 10751 10752 10754 10755 10757 10757 10757 10758 10758 10757 10757 10756 10756 10755 10754 10753 10753 10754 10755 10755 10755 10754 10754 10753 10753 10752 10752 10752 10751 10750 10749 10747 10746 10745 10744 10743 10741 10739 10738 10736 10734 10733 10731 10729 10727 10726 10726 10725 10724 10723 10721 10718 10716 10714 10711 10708 10704 10699 10694 10693 10693 10690 10686 10684 10683 10682 10681 10680 10679 10678 10677 10675 10674 10674 10673 10673 10672
10732 10734 10736 10738 10741 10743 10744 10746 10747 10748 10749 10751 10751 10752 10752 10753 10754 10754 10753 10753 10751 10751 10750 10750 10750 10750 10751 10751 10751 10751 10750 10749 10749 10749 10748 10748 10748 10747 10745 10743 10742 10741 10740 10739 10737 10736 10734 10732 10730 10729 10727 10725 10723 10722 10720 10719 10719 10718 10717 10715 10713 10711 10708 10705 10702 10699 10693 10687 10685 10685 10684 10680 10677 10677 10675 10674 10673 10672 10671 10670 10669 10669 10668 10666 10666
10729 10730 10732 10735 10738 10739 10741 10742 10743 10744 10745 10746 10745 10746 10747 10748 10749 10749 10748 10748 10747 10748 10747 10747 10747 10747 10747 10747 10747 10747 10746 10745 10745 10745 10745 10745 10744 10743 10741 10740 10738 10737 10736 10735 10733 10732 10730 10728 10726 10724 10723 10722 10719 10718 10716 10714 10712 10711 10709 10708 10707 10705 10703 10701 10698 10696 10693 10687 10680 10677 10677 10675 10672 10671 10671 10668 10667 10666 10665 10664 10664 10663 10662 10661 10660
10725 10727 10728 10731 10733 10735 10737 10739 10739 10739 10740 10740 10741 10741 10742 10743 10744 10744 10743 10743 10744 10744 10744 10744 10744 10744 10744 10744 10743 10743 10742 10742 10742 10742 10742 10741 10740 10739 10737 10736 10735 10733 10732 10731 10729 10728 10726 10725 10722 10721 10719 10717 10715 10714 10712 10710 10708 10705 10703 10701 10700 10698 10696 10695 10693 10691 10688 10685 10680 10674 10671 10670 10666 10664 10664 10663 10661 10659 10658 10657 10657 10656 10656 10655 10654
10720 10722 10724 10726 10728 10730 10733 10735 10736 10736 10735 10736 10736 10737 10738 10738 10739 10739 10739 10739 10739 10739 10740 10740 10741 10741 10741 10740 10740 10740 10740 10740 10740 10740 10739 10738 10737 10735 10734 10732 10730 10729 10728 10726 10725 10723 10722 10720 10718 10716 10714 10712 10711 10709 10707 10705 10703 10701 10699 10696 10694 10692 10689 10687 10685 10684 10682 10679 10676 10672 10668 10666 10662 10658 10657 10656 10654 10653 10652 10651 10650 10649 10649 10648 10647